Weather reports worldwide

Advertisment
Stonyhurst, United Kingdom (99060): temperature & dewpoint: 14.02.2018 05:00:00 - 20.02.2018 05:00:00 (GMT)Stonyhurst, United Kingdom (99060): precipitation: 14.02.2018 05:00:00 - 20.02.2018 05:00:00 (GMT)
Date & Time tt [°C] td [°C] rr [mm]
20.02.2018 05:00:00 6,8 2,4 0,0
20.02.2018 04:00:00 7,2 5,7 0,0
20.02.2018 03:00:00 6,4 6,1 0,0
20.02.2018 02:00:00 6,6 6,3 0,0
20.02.2018 01:00:00 6,4 6,2 0,0
20.02.2018 00:00:00 6,0 5,7 0,0
19.02.2018 23:00:00 6,1 5,7 0,0
19.02.2018 22:00:00 6,4 6,0 0,0
19.02.2018 21:00:00 7,6 7,2 0,0
19.02.2018 20:00:00 8,1 7,6 0,0
19.02.2018 19:00:00 8,1 7,5 0,0
19.02.2018 18:00:00 8,6 7,6 0,0
19.02.2018 17:00:00 8,4 7,3 0,0
19.02.2018 16:00:00 9,5 8,3 0,0
19.02.2018 15:00:00 9,5 8,7 0,0
19.02.2018 14:00:00 9,2 8,9 0,0
19.02.2018 13:00:00 8,9 8,7 0,0
19.02.2018 12:00:00 9,0 8,8 0,0
19.02.2018 11:00:00 8,6 8,4 0,0
19.02.2018 10:00:00 8,2 8,1 0,0
19.02.2018 09:00:00 7,6 7,5 0,0
19.02.2018 08:00:00 7,3 7,1 0,2
19.02.2018 07:00:00 7,1 6,9 0,0
19.02.2018 06:00:00 7,1 6,9 0,2
19.02.2018 05:00:00 7,1 6,9 0,0
19.02.2018 04:00:00 7,0 6,7 0,2
19.02.2018 03:00:00 7,0 6,7 0,2
19.02.2018 02:00:00 6,9 6,6 0,4
19.02.2018 01:00:00 6,9 6,4 0,2
19.02.2018 00:00:00 6,8 6,2 0,6
18.02.2018 23:00:00 6,8 6,2 1,0
18.02.2018 22:00:00 6,8 6,1 0,6
18.02.2018 21:00:00 6,7 5,9 0,2
18.02.2018 20:00:00 6,6 5,5 0,2
18.02.2018 19:00:00 6,9 5,2 0,0
18.02.2018 18:00:00 6,9 5,1 0,0
18.02.2018 17:00:00 7,0 5,1 0,0
18.02.2018 16:00:00 7,0 5,2 0,0
18.02.2018 15:00:00 6,9 5,0 0,0
18.02.2018 14:00:00 6,6 4,8 0,0
18.02.2018 13:00:00 6,4 4,8 0,0
18.02.2018 12:00:00 5,8 4,6 0,0
18.02.2018 11:00:00 5,2 4,1 0,0
18.02.2018 10:00:00 5,1 4,0 0,0
18.02.2018 09:00:00 4,2 3,6 0,0
18.02.2018 08:00:00 3,0 2,5 0,0
18.02.2018 07:00:00 3,0 2,4 0,0
18.02.2018 06:00:00 2,4 1,6 0,0
18.02.2018 05:00:00 2,6 1,8 0,0
18.02.2018 04:00:00 3,0 2,2 0,0
18.02.2018 03:00:00 3,3 2,4 0,0
18.02.2018 02:00:00 4,0 2,6 0,2
18.02.2018 01:00:00 4,1 2,2 0,0
18.02.2018 00:00:00 4,2 2,1 0,0
17.02.2018 23:00:00 4,0 2,3 0,0
17.02.2018 22:00:00 3,8 2,2 0,0
17.02.2018 21:00:00 4,5 2,8 0,0
17.02.2018 20:00:00 4,9 2,9 0,0
17.02.2018 19:00:00 5,1 2,7 0,0
17.02.2018 18:00:00 5,6 2,7 0,0
17.02.2018 17:00:00 7,2 3,1 0,0
17.02.2018 16:00:00 7,8 2,9 0,0
17.02.2018 15:00:00 7,5 3,4 0,0
17.02.2018 14:00:00 7,4 3,7 0,0
17.02.2018 13:00:00 7,0 4,5 0,0
17.02.2018 12:00:00 5,8 4,1 0,0
17.02.2018 11:00:00 4,9 3,6 0,0
17.02.2018 10:00:00 4,3 3,1 0,0
17.02.2018 09:00:00 3,9 2,5 0,0
17.02.2018 08:00:00 3,6 2,0 0,4
17.02.2018 07:00:00 3,7 1,8 0,0
17.02.2018 06:00:00 3,6 1,6 0,0
17.02.2018 05:00:00 4,1 1,5 0,2
17.02.2018 04:00:00 4,1 1,7 0,0
17.02.2018 03:00:00 3,9 1,3 0,0
17.02.2018 02:00:00 4,3 1,5 0,0
17.02.2018 01:00:00 4,3 1,2 0,0
17.02.2018 00:00:00 4,3 1,0 0,0
16.02.2018 23:00:00 4,1 0,8 0,0
16.02.2018 22:00:00 3,5 0,4 0,0
16.02.2018 21:00:00 4,1 1,2 0,0
16.02.2018 20:00:00 5,0 1,5 0,0
16.02.2018 19:00:00 5,4 1,5 0,0
16.02.2018 18:00:00 5,8 2,1 0,0
16.02.2018 17:00:00 6,2 2,6 0,0
16.02.2018 16:00:00 6,7 2,6 0,0
16.02.2018 15:00:00 6,9 1,8 0,0
16.02.2018 14:00:00 7,3 1,8 0,0
16.02.2018 13:00:00 7,1 1,6 0,0
16.02.2018 12:00:00 6,5 0,9 0,0
16.02.2018 11:00:00 6,0 0,5 0,0
16.02.2018 10:00:00 4,8 0,1 0,0
16.02.2018 09:00:00 2,9 -0,4 0,0
16.02.2018 08:00:00 1,9 -0,5 0,0
16.02.2018 07:00:00 2,6 0,6 0,0
16.02.2018 06:00:00 2,7 1,0 0,0
16.02.2018 05:00:00 2,6 0,8 0,0
16.02.2018 04:00:00 2,8 0,8 0,0
16.02.2018 03:00:00 3,5 0,2 0,0
16.02.2018 02:00:00 3,5 -0,1 0,0
16.02.2018 01:00:00 3,6 -0,4 0,0
16.02.2018 00:00:00 3,7 0,5 0,0
15.02.2018 23:00:00 3,6 -1,1 0,0
15.02.2018 22:00:00 3,9 0,4 0,0
15.02.2018 21:00:00 3,4 -0,1 0,0
15.02.2018 20:00:00 3,8 -0,4 0,0
15.02.2018 19:00:00 3,6 -0,1 0,0
15.02.2018 18:00:00 3,1 0,1 0,2
15.02.2018 17:00:00 4,8 -1,0 0,0
15.02.2018 16:00:00 5,1 -1,6 0,0
15.02.2018 15:00:00 6,0 -0,7 0,0
15.02.2018 14:00:00 5,7 -1,5 0,0
15.02.2018 13:00:00 5,7 -0,6 0,0
15.02.2018 12:00:00 5,4 -0,7 0,0
15.02.2018 11:00:00 4,9 -0,9 0,0
15.02.2018 10:00:00 5,1 -0,7 0,0
15.02.2018 09:00:00 4,3 0,7 0,0
15.02.2018 08:00:00 3,3 1,3 0,0
15.02.2018 07:00:00 3,4 1,9 0,0
15.02.2018 06:00:00 4,4 3,5 0,0
15.02.2018 05:00:00 5,0 4,3 0,0
15.02.2018 04:00:00 4,6 3,7 1,6
15.02.2018 03:00:00 5,1 3,1 0,8
15.02.2018 02:00:00 5,7 4,0 0,0
15.02.2018 01:00:00 5,7 4,4 0,0
15.02.2018 00:00:00 5,8 5,1 0,0
14.02.2018 23:00:00 5,7 5,1 0,0
14.02.2018 22:00:00 5,7 5,0 0,2
14.02.2018 21:00:00 5,7 5,0 0,0
14.02.2018 20:00:00 5,6 4,8 0,0
14.02.2018 19:00:00 5,3 4,4 0,6
14.02.2018 18:00:00 5,1 4,0 0,2
14.02.2018 17:00:00 4,8 3,3 0,0
14.02.2018 16:00:00 4,3 2,9 0,0
14.02.2018 15:00:00 4,0 2,3 0,0
14.02.2018 14:00:00 3,5 1,8 0,2
14.02.2018 13:00:00 2,8 1,4 0,8
14.02.2018 12:00:00 2,1 0,8 1,0
14.02.2018 11:00:00 2,5 -0,3 0,0
14.02.2018 10:00:00 3,0 -1,6 -
14.02.2018 09:00:00 2,2 -2,6 0,0
14.02.2018 08:00:00 1,6 -3,2 0,0
14.02.2018 07:00:00 1,1 -3,1 0,0
14.02.2018 06:00:00 0,3 -2,8 0,0
14.02.2018 05:00:00 -0,2 -2,8 0,0

tt = temperature
td = dewpoint
rr = precipitation

Next stations